Probability
0 0 0 0 0 0 0 0 0 0 0 0 1 3 3 3 2 4 4 5 8 11 13 11 9 11 15 17 17 18 19 18 17 15 13 11 11 10 11 10 9 10 11 10
0 0 0 0 0 0 0 0 0 0 0 1 3 4 4 3 4 6 6 6 7 10 11 10 9 10 14 16 18 21 23 22 19 17 14 12 12 12 11 9 9 11 11 11
0 0 0 0 0 0 1 0 0 0 1 2 4 6 5 5 6 8 9 9 9 8 9 10 10 12 14 16 20 24 26 25 23 20 17 15 15 15 14 12 11 12 13 12
0 0 0 0 0 0 0 0 0 0 1 3 6 7 5 5 7 9 10 12 11 9 9 12 14 15 16 19 22 25 26 25 22 20 18 17 16 16 16 16 14 13 13 11
0 0 0 0 0 0 0 0 0 0 2 4 6 7 5 4 5 8 11 13 14 14 13 14 16 18 20 21 24 25 24 24 21 20 19 18 16 16 16 15 14 12 11 9
0 0 0 0 0 0 0 0 0 1 2 4 6 7 5 4 4 5 9 14 17 17 17 15 16 19 21 21 21 21 22 22 21 21 21 19 17 16 15 13 12 10 8 8
0 0 0 1 1 1 0 0 0 1 3 4 4 4 3 2 2 2 5 11 16 18 18 16 15 18 20 19 17 17 17 17 17 19 21 19 18 16 13 12 11 9 8 8
0 0 0 1 2 1 0 0 1 2 3 4 2 1 1 1 1 1 3 6 12 16 16 14 14 16 17 16 15 15 14 13 15 17 18 17 16 13 11 11 10 10 11 11
0 0 0 1 1 0 1 1 3 3 4 3 2 1 2 3 4 3 3 5 9 13 13 10 10 12 13 14 15 15 14 14 16 16 16 15 13 11 9 9 10 11 13 13
1 1 0 0 0 0 1 2 3 3 4 5 4 4 5 6 6 4 3 5 8 11 11 8 7 8 9 12 15 15 15 15 16 16 15 14 12 10 9 9 10 11 11 12
2 1 0 0 0 0 1 1 2 2 3 5 6 7 8 8 6 4 4 5 7 10 11 10 9 9 8 10 13 15 14 15 16 16 15 14 12 9 8 8 9 9 9 10
2 1 0 0 0 0 0 0 0 0 1 4 6 8 9 8 6 5 5 5 6 9 12 12 11 11 10 9 11 14 15 15 15 15 15 14 12 10 7 6 6 6 7 7
1 0 0 0 0 0 0 0 0 0 1 2 5 8 9 9 7 7 6 6 6 9 12 13 11 10 9 8 9 12 13 14 14 15 15 14 12 10 7 4 4 3 3 4
0 0 0 0 1 1 1 1 1 1 1 3 5 7 8 9 9 8 7 6 6 9 13 15 13 9 8 8 9 9 10 11 13 14 14 13 11 9 6 4 3 1 1 1
0 0 0 1 2 2 2 2 2 2 3 4 5 5 6 7 8 8 7 7 7 9 14 16 13 10 8 9 9 8 9 10 11 11 11 10 8 6 5 4 2 1 0 0
0 0 1 2 3 3 3 2 2 2 2 4 4 4 4 5 6 5 5 7 8 10 12 13 11 9 10 11 10 10 10 10 9 9 8 8 6 4 3 2 1 0 0 0
0 0 1 2 2 2 2 2 1 0 1 2 3 3 3 4 4 3 3 4 7 8 9 8 7 8 10 11 11 11 11 10 9 8 7 6 5 3 1 1 0 0 0 0
0 0 0 1 1 1 2 2 1 0 0 1 1 2 3 3 3 3 3 3 5 5 5 5 5 6 7 8 9 10 11 10 8 7 5 4 4 2 1 0 0 0 0 0
0 0 0 0 1 1 2 2 1 0 0 0 0 1 1 2 3 3 4 4 4 4 3 4 5 5 4 5 6 8 9 9 7 6 4 3 3 1 0 0 0 0 0 0
0 0 0 0 1 1 1 1 0 0 0 0 0 0 0 1 1 2 3 3 3 3 2 3 3 3 3 3 4 6 7 7 6 5 4 3 2 1 0 0 0 0 0 0
0 0 0 0 1 1 0 0 0 0 0 0 0 0 0 0 0 1 1 2 1 1 1 1 1 1 2 3 3 4 4 5 5 4 3 3 2 1 0 0 0 0 0 0
0 0 0 0 0 0 0 0 0 0 0 0 0 0 0 0 0 0 0 0 0 0 0 0 0 0 1 3 3 3 3 3 4 3 3 3 1 0 0 0 0 0 0 0
0 0 0 0 0 0 0 0 0 0 0 0 0 0 0 0 0 0 0 0 0 0 0 0 0 0 1 2 3 3 3 3 3 3 3 2 1 0 0 0 0 0 0 0
0 0 0 0 0 0 0 0 0 0 0 0 0 0 0 0 0 0 0 0 0 0 0 0 0 0 1 2 3 3 3 3 3 3 3 2 1 0 0 0 0 0 0 0
0 0 0 0 0 0 0 0 0 0 0 0 0 0 0 0 0 0 0 0 0 0 0 0 0 0 0 1 1 2 2 2 2 2 2 1 0 0 0 0 0 0 0 0
0 0 0 0 0 0 0 0 0 0 0 0 0 0 0 0 0 0 0 0 0 0 0 0 0 0 0 0 0 0 0 1 1 1 1 0 0 0 0 0 0 0 0 0
0 0 0 0 0 0 0 0 0 0 0 0 0 0 0 0 0 0 0 0 0 0 0 0 0 0 0 0 0 0 0 0 0 0 0 0 0 0 0 0 0 0 0 0
Wind_Speed
3 3 3 3 3 4 5 7 8 7 7 7 5 4 3 1 2 3 3 3 4 4 4 4 4 5 5 5 5 6 6 6 6 5 4 4 4 3 3 3 3 3 3 3
1 1 2 2 3 5 4 4 4 3 5 4 2 0 1 1 2 3 3 4 4 4 4 4 4 5 5 5 6 6 6 6 5 5 5 4 4 4 4 3 3 3 3 3
2 3 1 3 4 4 2 2 4 5 5 0 1 1 1 1 2 2 2 2 3 4 4 4 4 5 5 6 5 6 6 5 5 5 5 5 5 4 4 4 3 3 3 3
1 2 4 7 2 3 3 0 1 1 1 2 3 1 0 1 2 1 0 1 1 2 2 3 3 4 4 4 5 5 5 5 5 5 5 4 4 4 4 3 4 4 3 3
3 3 4 5 1 1 2 1 2 1 1 1 1 3 3 2 1 1 1 1 1 2 2 2 2 3 4 4 4 5 5 5 5 5 5 5 4 4 4 4 3 3 3 4
4 4 6 6 2 2 2 2 2 1 1 1 3 2 3 2 1 1 1 1 0 1 2 2 1 3 4 4 4 4 5 5 4 4 5 5 5 4 3 3 3 3 2 2
4 3 6 5 4 1 4 6 2 2 2 2 3 5 4 2 1 1 1 1 1 2 2 1 2 3 3 3 4 4 4 4 4 4 5 5 4 3 3 3 3 2 2 2
4 4 7 3 2 3 4 2 2 3 3 3 3 1 1 0 0 1 1 2 2 2 1 0 2 4 3 3 3 2 3 3 3 3 4 3 4 3 3 3 3 3 2 1
6 6 4 2 1 2 2 2 3 3 4 3 2 2 1 1 0 0 0 1 1 1 1 1 1 3 3 2 1 1 3 3 3 3 3 3 4 4 3 3 3 3 3 2
1 3 3 3 2 1 1 2 3 3 2 2 3 2 1 1 1 0 1 1 1 1 1 1 0 1 3 2 1 2 2 2 2 3 2 2 2 3 3 3 3 3 3 3
2 3 3 3 3 3 3 3 2 2 1 1 2 2 2 2 1 1 1 1 0 0 1 2 1 1 1 2 3 3 2 2 2 2 2 2 1 1 2 2 4 4 4 3
6 5 3 5 4 3 2 3 2 2 2 1 1 2 2 2 2 2 1 1 0 0 1 2 1 1 1 1 3 3 2 2 2 2 2 2 2 1 2 1 1 3 4 4
6 4 5 6 5 3 3 3 3 2 2 2 1 1 1 1 1 1 1 1 1 1 1 1 2 2 1 1 2 2 2 2 2 2 3 3 3 3 1 2 3 2 2 4
5 3 4 5 5 4 3 3 2 1 1 1 1 1 1 1 1 1 2 2 1 1 2 1 1 2 2 1 1 1 2 2 2 2 2 3 3 3 3 2 1 1 1 1
5 4 6 4 4 4 3 2 1 1 1 1 1 1 1 2 1 1 1 1 0 1 2 1 1 3 1 1 1 1 1 1 2 2 2 2 2 2 2 2 2 1 0 1
4 3 3 3 4 4 2 1 1 3 2 1 1 1 1 1 1 0 0 0 1 1 2 1 2 3 1 1 1 0 1 2 2 2 2 2 2 2 2 2 2 2 2 1
3 4 4 3 4 4 3 3 3 3 2 1 2 1 1 2 2 1 1 1 1 1 1 1 2 2 1 1 1 1 1 1 2 2 2 2 2 2 2 3 2 2 2 3
5 5 5 5 5 4 3 3 2 2 2 2 1 1 1 1 1 0 1 2 3 3 3 2 2 1 1 1 1 1 1 1 1 1 1 2 2 2 2 2 2 2 1 1
2 3 3 3 3 3 2 1 1 1 1 1 1 1 1 1 1 0 1 2 2 2 3 3 2 2 1 1 1 1 1 2 2 1 1 2 1 1 1 1 2 1 1 1
1 1 0 1 1 1 1 1 0 0 0 1 2 2 1 0 1 1 2 2 1 2 2 2 2 2 2 1 2 1 2 2 2 1 1 1 1 1 1 1 1 1 1 1
1 1 2 2 2 2 2 2 2 1 0 1 2 2 1 1 1 1 1 1 2 2 2 2 2 2 2 2 2 2 2 2 2 2 2 2 2 1 1 1 1 1 1 1
2 2 3 3 3 2 1 2 2 2 2 2 2 2 3 2 2 3 2 0 1 2 2 2 2 2 3 3 2 2 2 2 2 2 2 2 2 1 1 2 2 1 2 1
2 3 3 3 3 3 3 3 3 3 2 2 2 2 2 2 2 2 1 1 1 2 2 2 3 4 4 3 3 3 3 3 2 2 2 1 1 1 2 2 1 1 1 1
3 3 3 3 4 5 4 3 3 3 3 3 3 3 3 3 3 2 1 2 3 4 3 4 5 6 5 3 3 3 3 3 3 3 3 2 2 2 2 1 1 1 1 1
2 3 3 3 3 2 2 2 4 4 4 4 4 3 3 2 2 2 2 3 4 5 4 5 6 6 4 3 3 3 3 3 3 3 3 3 2 2 2 2 2 2 2 1
2 2 2 2 2 2 2 2 3 3 3 3 3 3 3 3 3 3 3 4 5 5 4 3 4 4 3 3 4 3 3 3 3 3 3 3 3 3 3 3 3 2 2 2
2 2 2 2 2 2 2 3 3 3 3 3 3 3 3 3 4 4 4 4 4 4 3 3 3 3 3 3 4 3 3 3 3 3 3 3 3 2 2 2 2 2 2 2
Wind_Direction
227 232 194 212 225 199 194 191 191 223 220 241 243 244 254 250 139 133 147 159 171 179 188 187 183 186 185 187 182 177 174 182 189 191 185 177 174 180 187 189 200 199 192 192
288 279 220 244 258 223 224 208 213 217 246 247 240 136 65 82 129 152 175 184 185 180 183 192 191 189 181 183 184 175 181 189 184 179 180 181 183 178 180 187 190 189 194 191
260 299 37 261 239 202 198 220 192 208 231 153 88 101 191 145 127 156 184 184 188 194 194 199 197 186 183 184 178 175 181 184 180 179 184 190 192 182 184 189 184 191 199 192
155 75 220 241 250 153 141 100 294 216 202 166 175 187 107 95 130 151 177 173 201 201 202 201 183 175 170 162 167 175 180 183 184 182 187 184 181 187 192 187 188 192 194 196
134 172 258 286 269 146 146 293 308 218 205 140 103 67 25 9 30 200 212 204 189 197 198 187 166 160 141 150 162 170 182 185 185 181 184 181 185 195 198 187 189 190 189 187
137 163 219 241 274 302 122 250 295 198 189 117 97 103 263 306 332 332 1 21 92 122 125 122 153 140 135 149 164 183 195 196 182 179 184 187 191 194 196 183 183 173 170 183
162 200 253 265 299 12 179 232 272 245 240 188 184 210 231 267 314 329 10 35 62 81 104 159 141 131 149 165 191 199 187 188 184 185 191 186 179 178 174 170 160 161 163 165
154 184 245 303 50 162 221 262 244 248 242 224 224 229 218 197 319 11 25 36 65 85 69 36 124 135 153 204 219 187 163 173 180 190 198 182 168 167 165 166 166 171 166 163
186 207 245 289 221 232 209 254 264 249 258 235 213 215 218 246 263 309 332 14 50 108 96 34 136 153 173 234 225 153 149 164 174 187 197 181 170 172 171 169 175 184 177 185
240 262 270 285 289 302 287 276 285 276 265 216 192 192 199 252 255 269 320 337 358 74 86 350 286 193 198 204 160 142 157 173 168 171 179 168 164 172 177 184 185 187 187 190
253 271 313 302 287 293 311 313 317 329 330 245 172 174 184 201 235 236 260 300 328 227 235 259 270 255 228 172 151 153 170 181 171 169 168 151 136 155 191 202 197 191 195 189
229 229 216 259 275 277 285 291 291 305 332 340 197 204 190 205 223 231 236 206 168 319 292 292 284 269 251 181 163 160 171 182 179 172 168 163 149 84 42 133 168 185 187 181
234 236 230 253 273 273 268 273 262 238 232 263 274 246 213 235 255 264 259 214 211 233 261 283 291 284 272 190 166 168 187 197 191 180 180 181 181 177 171 41 67 91 148 169
233 230 260 262 266 280 278 276 262 251 249 236 233 210 186 223 242 230 243 246 257 272 266 252 259 277 279 196 164 179 190 196 193 195 190 191 194 194 189 182 169 27 19 169
250 233 235 259 286 297 300 289 307 306 284 277 227 191 191 194 211 244 257 252 276 285 281 282 279 281 278 188 175 198 199 194 189 181 177 183 180 177 181 182 181 184 152 7
262 261 250 255 266 276 285 285 261 280 278 267 264 248 213 178 151 141 326 116 168 272 294 296 282 287 291 187 168 189 188 177 186 164 161 172 176 177 184 186 188 192 203 200
239 248 237 239 248 254 257 248 238 246 257 256 254 242 154 119 99 75 10 15 32 313 292 271 273 288 284 202 171 168 169 167 166 165 180 182 185 188 192 194 201 206 214 208
228 232 227 220 221 226 240 238 230 227 236 253 266 181 150 139 141 192 352 38 40 7 338 317 305 318 323 332 146 153 158 167 167 166 167 164 177 190 193 193 199 210 211 189
255 239 235 222 216 205 206 210 231 245 248 240 192 165 176 174 152 92 49 54 52 354 323 330 346 356 352 11 95 128 139 138 138 135 141 143 149 154 159 168 174 194 181 168
326 316 210 175 145 141 148 150 128 323 261 123 112 106 98 25 85 84 65 44 333 291 312 339 354 12 14 26 69 89 105 120 125 119 114 118 122 120 124 137 147 148 145 150
35 65 97 113 104 99 120 132 131 125 80 103 119 135 130 77 83 96 89 20 327 341 18 24 21 15 16 39 62 78 93 108 114 115 108 100 93 91 96 100 109 115 120 121
50 80 91 94 87 72 69 98 113 112 93 83 82 89 89 78 71 65 60 61 337 22 43 37 31 34 41 52 63 75 82 90 91 97 101 102 107 106 98 97 96 98 105 109
64 83 91 90 92 83 62 66 81 94 97 97 93 91 91 84 81 92 55 360 28 53 54 44 48 52 55 61 64 69 71 75 82 92 99 106 110 110 106 100 93 94 97 96
63 77 81 81 83 80 71 59 66 73 76 77 83 92 97 88 59 47 74 59 56 61 60 52 55 59 63 59 58 59 59 63 70 74 77 78 83 93 99 98 89 88 89 85
74 77 78 82 81 84 93 84 71 66 69 65 62 64 74 88 95 78 73 65 61 62 58 48 51 55 57 55 54 57 58 62 71 78 77 75 73 78 85 87 87 84 79 77
84 86 87 94 101 101 99 94 88 83 85 79 61 55 65 70 78 71 63 59 56 57 53 42 44 50 54 54 52 52 54 57 62 65 68 70 68 67 63 60 63 70 68 60
66 74 76 69 62 81 95 96 95 89 90 95 83 65 68 72 72 67 64 60 57 55 53 47 45 47 52 55 54 52 54 56 57 58 58 58 57 56 57 63 65 66 64 61